QPF
0.01 0.04 0.08 0.09 0.10 0.07 0.04 0.05 0.07 0.05 0.03 0.01 0.01 0.02 0.03 0.02 0.02 0.05 0.05 0.05 0.04 0.03 0.02 0.03 0.03 0.04 0.06 0.05 0.03 0.03 0.04 0.04 0.04 0.04 0.04 0.04 0.03 0.04 0.05 0.04 0.03 0.03 0.02 0.02 0.03 0.03 0.03 0.03 0.03
0.03 0.07 0.11 0.14 0.08 0.05 0.05 0.05 0.03 0.02 0.02 0.01 0.01 0.01 0.02 0.01 0.01 0.03 0.04 0.04 0.02 0.01 0.01 0.02 0.03 0.03 0.04 0.03 0.02 0.01 0.02 0.02 0.02 0.04 0.03 0.03 0.03 0.04 0.04 0.04 0.03 0.03 0.03 0.04 0.03 0.02 0.02 0.03 0.03
0.03 0.06 0.09 0.09 0.06 0.05 0.06 0.04 0.02 0.03 0.01 0.01 0.01 0.00 0.01 0.02 0.02 0.03 0.03 0.02 0.01 0.01 0.01 0.02 0.03 0.04 0.04 0.02 0.03 0.01 0.01 0.02 0.03 0.04 0.04 0.03 0.03 0.03 0.03 0.03 0.02 0.02 0.02 0.02 0.02 0.02 0.03 0.03 0.03
0.04 0.06 0.09 0.05 0.03 0.04 0.06 0.03 0.02 0.04 0.01 0.00 0.00 0.01 0.01 0.02 0.03 0.03 0.02 0.01 0.01 0.01 0.01 0.02 0.02 0.02 0.03 0.03 0.02 0.02 0.02 0.03 0.03 0.04 0.03 0.03 0.03 0.02 0.01 0.01 0.01 0.01 0.02 0.02 0.01 0.02 0.02 0.02 0.01
0.04 0.06 0.05 0.02 0.02 0.02 0.02 0.01 0.01 0.02 0.01 0.00 0.00 0.02 0.03 0.03 0.02 0.02 0.01 0.00 0.00 0.01 0.01 0.01 0.02 0.02 0.02 0.03 0.04 0.03 0.03 0.03 0.03 0.03 0.03 0.03 0.02 0.02 0.01 0.01 0.01 0.02 0.02 0.02 0.02 0.02 0.02 0.02 0.01
0.03 0.04 0.04 0.02 0.02 0.02 0.02 0.01 0.01 0.01 0.01 0.00 0.00 0.01 0.04 0.03 0.02 0.02 0.02 0.01 0.01 0.01 0.01 0.01 0.02 0.02 0.03 0.02 0.03 0.03 0.05 0.05 0.04 0.03 0.02 0.02 0.02 0.02 0.02 0.01 0.01 0.03 0.03 0.03 0.02 0.02 0.02 0.02 0.02
0.03 0.04 0.04 0.02 0.01 0.01 0.01 0.01 0.01 0.01 0.00 0.00 0.00 0.01 0.02 0.01 0.01 0.01 0.01 0.01 0.01 0.01 0.01 0.01 0.01 0.01 0.02 0.02 0.02 0.04 0.05 0.05 0.04 0.03 0.03 0.03 0.02 0.01 0.01 0.02 0.01 0.02 0.02 0.02 0.02 0.03 0.02 0.01 0.03
0.02 0.03 0.04 0.02 0.01 0.00 0.00 0.00 0.00 0.00 0.00 0.00 0.00 0.00 0.01 0.01 0.01 0.01 0.01 0.02 0.02 0.01 0.01 0.01 0.01 0.01 0.01 0.01 0.02 0.03 0.04 0.04 0.03 0.02 0.03 0.02 0.02 0.02 0.02 0.02 0.02 0.01 0.01 0.01 0.02 0.02 0.02 0.02 0.02
0.02 0.02 0.03 0.01 0.01 0.00 0.00 0.00 0.00 0.00 0.00 0.00 0.00 0.00 0.00 0.01 0.02 0.02 0.01 0.02 0.01 0.01 0.01 0.01 0.01 0.01 0.00 0.01 0.01 0.02 0.02 0.02 0.02 0.01 0.03 0.03 0.01 0.01 0.02 0.03 0.02 0.01 0.01 0.01 0.02 0.03 0.02 0.02 0.02
0.02 0.02 0.02 0.01 0.00 0.00 0.00 0.00 0.00 0.00 0.00 0.01 0.00 0.00 0.00 0.01 0.02 0.02 0.01 0.01 0.00 0.01 0.01 0.01 0.01 0.01 0.00 0.00 0.01 0.01 0.01 0.01 0.01 0.01 0.01 0.01 0.01 0.01 0.01 0.02 0.03 0.03 0.02 0.02 0.02 0.03 0.02 0.01 0.01
0.01 0.01 0.01 0.01 0.01 0.01 0.01 0.00 0.01 0.01 0.01 0.01 0.01 0.01 0.01 0.01 0.01 0.01 0.01 0.00 0.00 0.00 0.01 0.01 0.02 0.02 0.02 0.02 0.02 0.02 0.01 0.01 0.01 0.01 0.00 0.01 0.01 0.01 0.01 0.01 0.02 0.02 0.01 0.01 0.01 0.02 0.01 0.01 0.01
0.01 0.00 0.01 0.00 0.01 0.01 0.01 0.01 0.01 0.01 0.01 0.00 0.00 0.00 0.01 0.01 0.04 0.04 0.01 0.00 0.00 0.00 0.01 0.02 0.03 0.05 0.07 0.05 0.02 0.01 0.01 0.01 0.01 0.01 0.00 0.00 0.00 0.00 0.00 0.00 0.00 0.00 0.01 0.01 0.00 0.00 0.00 0.01 0.01
0.01 0.01 0.01 0.01 0.01 0.01 0.01 0.01 0.01 0.01 0.00 0.00 0.00 0.00 0.00 0.01 0.03 0.02 0.01 0.01 0.01 0.01 0.02 0.02 0.03 0.03 0.03 0.02 0.01 0.00 0.01 0.01 0.01 0.01 0.01 0.01 0.00 0.00 0.00 0.00 0.00 0.00 0.00 0.01 0.00 0.00 0.01 0.01 0.01
0.01 0.01 0.01 0.00 0.00 0.01 0.01 0.01 0.00 0.00 0.01 0.00 0.00 0.00 0.00 0.00 0.01 0.01 0.01 0.01 0.01 0.01 0.02 0.02 0.03 0.03 0.03 0.03 0.02 0.01 0.01 0.02 0.02 0.01 0.02 0.01 0.01 0.01 0.00 0.00 0.00 0.00 0.00 0.00 0.00 0.01 0.00 0.00 0.01
0.02 0.01 0.01 0.00 0.00 0.00 0.01 0.01 0.00 0.00 0.01 0.00 0.00 0.00 0.00 0.00 0.01 0.01 0.01 0.01 0.01 0.01 0.01 0.01 0.01 0.02 0.02 0.02 0.02 0.01 0.01 0.02 0.02 0.01 0.01 0.01 0.01 0.00 0.00 0.00 0.00 0.00 0.00 0.00 0.00 0.01 0.00 0.00 0.01
0.01 0.01 0.01 0.00 0.00 0.00 0.01 0.01 0.00 0.00 0.00 0.00 0.00 0.00 0.00 0.00 0.01 0.01 0.01 0.01 0.01 0.00 0.00 0.00 0.01 0.01 0.02 0.02 0.02 0.01 0.01 0.02 0.01 0.01 0.01 0.01 0.01 0.00 0.00 0.00 0.00 0.00 0.00 0.00 0.00 0.01 0.00 0.00 0.01
0.01 0.01 0.01 0.00 0.00 0.01 0.01 0.01 0.00 0.00 0.00 0.00 0.01 0.00 0.00 0.00 0.01 0.01 0.01 0.01 0.00 0.00 0.00 0.00 0.00 0.01 0.01 0.02 0.02 0.01 0.01 0.02 0.01 0.01 0.01 0.00 0.01 0.01 0.00 0.00 0.00 0.00 0.00 0.01 0.01 0.01 0.00 0.00 0.01
0.00 0.00 0.00 0.01 0.01 0.01 0.01 0.01 0.00 0.00 0.00 0.00 0.00 0.01 0.00 0.00 0.01 0.00 0.00 0.00 0.00 0.00 0.00 0.00 0.01 0.01 0.01 0.01 0.01 0.01 0.01 0.01 0.02 0.02 0.02 0.02 0.01 0.01 0.01 0.00 0.00 0.00 0.00 0.00 0.00 0.00 0.00 0.00 0.01
0.01 0.01 0.01 0.01 0.01 0.01 0.01 0.01 0.00 0.00 0.00 0.00 0.00 0.00 0.00 0.00 0.01 0.00 0.00 0.00 0.00 0.00 0.00 0.00 0.01 0.01 0.00 0.01 0.01 0.01 0.02 0.01 0.02 0.02 0.02 0.02 0.02 0.01 0.01 0.00 0.00 0.00 0.00 0.00 0.01 0.02 0.01 0.01 0.01
0.01 0.01 0.00 0.01 0.01 0.01 0.01 0.01 0.01 0.00 0.00 0.00 0.00 0.00 0.00 0.00 0.00 0.00 0.00 0.00 0.00 0.00 0.00 0.01 0.01 0.00 0.01 0.01 0.02 0.02 0.01 0.01 0.01 0.02 0.03 0.03 0.03 0.01 0.01 0.01 0.01 0.01 0.01 0.00 0.00 0.01 0.03 0.03 0.02
0.01 0.01 0.01 0.01 0.01 0.01 0.01 0.01 0.01 0.01 0.00 0.00 0.00 0.00 0.00 0.00 0.00 0.00 0.00 0.00 0.00 0.00 0.01 0.01 0.01 0.01 0.01 0.01 0.01 0.01 0.01 0.01 0.02 0.02 0.02 0.02 0.02 0.02 0.01 0.01 0.01 0.01 0.01 0.01 0.00 0.01 0.02 0.01 0.02
0.02 0.02 0.02 0.01 0.01 0.01 0.01 0.01 0.01 0.01 0.01 0.00 0.00 0.00 0.00 0.00 0.00 0.00 0.00 0.00 0.00 0.00 0.01 0.01 0.01 0.01 0.01 0.01 0.00 0.00 0.01 0.01 0.01 0.01 0.00 0.01 0.01 0.02 0.01 0.01 0.01 0.01 0.01 0.02 0.01 0.00 0.01 0.01 0.01
0.02 0.01 0.02 0.02 0.01 0.01 0.01 0.01 0.01 0.01 0.01 0.01 0.00 0.00 0.00 0.00 0.00 0.00 0.00 0.00 0.00 0.01 0.01 0.01 0.01 0.01 0.00 0.01 0.00 0.00 0.00 0.00 0.00 0.00 0.00 0.00 0.00 0.00 0.01 0.02 0.01 0.01 0.02 0.01 0.01 0.01 0.01 0.01 0.01
0.01 0.02 0.02 0.02 0.01 0.01 0.01 0.01 0.01 0.00 0.00 0.01 0.00 0.00 0.00 0.00 0.00 0.00 0.00 0.00 0.00 0.00 0.01 0.01 0.01 0.01 0.00 0.01 0.00 0.00 0.00 0.00 0.00 0.00 0.01 0.01 0.01 0.00 0.01 0.01 0.01 0.01 0.01 0.01 0.01 0.02 0.02 0.02 0.02
0.01 0.02 0.02 0.03 0.02 0.01 0.00 0.01 0.01 0.01 0.01 0.00 0.00 0.00 0.00 0.00 0.00 0.00 0.00 0.00 0.00 0.00 0.01 0.01 0.01 0.01 0.00 0.01 0.01 0.00 0.00 0.00 0.00 0.00 0.01 0.01 0.01 0.00 0.00 0.00 0.01 0.00 0.01 0.01 0.01 0.02 0.02 0.02 0.01
0.00 0.01 0.02 0.02 0.02 0.01 0.00 0.00 0.01 0.01 0.01 0.01 0.00 0.00 0.00 0.00 0.00 0.00 0.00 0.00 0.00 0.01 0.01 0.01 0.02 0.01 0.01 0.01 0.01 0.01 0.00 0.00 0.01 0.01 0.01 0.01 0.00 0.00 0.00 0.00 0.00 0.00 0.00 0.01 0.01 0.01 0.01 0.02 0.02
0.01 0.01 0.01 0.01 0.01 0.01 0.00 0.01 0.01 0.01 0.01 0.01 0.00 0.00 0.00 0.00 0.00 0.00 0.00 0.01 0.01 0.01 0.01 0.01 0.01 0.01 0.01 0.02 0.01 0.01 0.01 0.01 0.02 0.02 0.02 0.01 0.01 0.00 0.00 0.00 0.01 0.01 0.00 0.00 0.01 0.01 0.01 0.02 0.03
0.01 0.01 0.01 0.01 0.02 0.01 0.01 0.01 0.01 0.01 0.01 0.01 0.01 0.00 0.01 0.00 0.00 0.00 0.00 0.01 0.01 0.02 0.02 0.02 0.01 0.01 0.01 0.01 0.01 0.01 0.01 0.02 0.03 0.03 0.02 0.01 0.01 0.01 0.01 0.01 0.01 0.01 0.01 0.01 0.01 0.01 0.01 0.01 0.02
0.00 0.01 0.01 0.01 0.02 0.01 0.02 0.02 0.01 0.01 0.01 0.01 0.01 0.01 0.01 0.01 0.00 0.00 0.00 0.01 0.01 0.01 0.02 0.01 0.01 0.02 0.01 0.01 0.01 0.01 0.02 0.02 0.03 0.02 0.02 0.01 0.01 0.01 0.02 0.01 0.01 0.01 0.01 0.01 0.01 0.01 0.01 0.01 0.01
0.00 0.00 0.00 0.01 0.01 0.01 0.01 0.01 0.01 0.02 0.02 0.01 0.01 0.02 0.01 0.01 0.01 0.01 0.00 0.00 0.01 0.01 0.01 0.01 0.01 0.01 0.01 0.01 0.01 0.02 0.01 0.02 0.02 0.02 0.02 0.02 0.02 0.02 0.02 0.02 0.01 0.01 0.01 0.02 0.01 0.01 0.01 0.01 0.02
MSLP
1010.72 1011.77 1013.09 1014.52 1015.88 1017.00 1017.80 1018.23 1018.36 1018.28 1018.13 1018.05 1018.11 1018.31 1018.62 1018.94 1019.17 1019.21 1019.02 1018.61 1018.03 1017.39 1016.77 1016.27 1015.93 1015.75 1015.67 1015.64 1015.58 1015.46 1015.24 1014.95 1014.63 1014.32 1014.06 1013.88 1013.77 1013.71 1013.67 1013.60 1013.48 1013.31 1013.10 1012.87 1012.64 1012.43 1012.26 1012.11 1011.98
1011.18 1012.43 1013.88 1015.37 1016.70 1017.72 1018.36 1018.61 1018.55 1018.30 1018.01 1017.82 1017.78 1017.90 1018.14 1018.40 1018.57 1018.58 1018.39 1018.00 1017.49 1016.94 1016.44 1016.06 1015.83 1015.74 1015.73 1015.75 1015.74 1015.64 1015.46 1015.22 1014.94 1014.68 1014.46 1014.31 1014.20 1014.12 1014.04 1013.93 1013.77 1013.57 1013.34 1013.11 1012.91 1012.73 1012.58 1012.46 1012.33
1011.77 1013.16 1014.69 1016.16 1017.41 1018.29 1018.76 1018.84 1018.62 1018.24 1017.85 1017.57 1017.46 1017.51 1017.67 1017.85 1017.95 1017.91 1017.69 1017.33 1016.89 1016.44 1016.07 1015.83 1015.72 1015.74 1015.81 1015.88 1015.91 1015.85 1015.71 1015.50 1015.27 1015.05 1014.87 1014.72 1014.60 1014.49 1014.36 1014.19 1013.99 1013.77 1013.55 1013.36 1013.20 1013.08 1013.00 1012.92 1012.83
1012.46 1013.93 1015.45 1016.85 1017.96 1018.69 1019.00 1018.93 1018.61 1018.16 1017.72 1017.40 1017.25 1017.24 1017.32 1017.41 1017.42 1017.31 1017.06 1016.72 1016.34 1016.00 1015.75 1015.64 1015.65 1015.76 1015.90 1016.02 1016.08 1016.05 1015.94 1015.77 1015.58 1015.40 1015.24 1015.11 1014.97 1014.83 1014.66 1014.45 1014.22 1014.00 1013.80 1013.65 1013.56 1013.52 1013.51 1013.50 1013.46
1013.21 1014.67 1016.12 1017.39 1018.33 1018.89 1019.07 1018.91 1018.54 1018.09 1017.68 1017.38 1017.22 1017.17 1017.18 1017.17 1017.08 1016.89 1016.60 1016.26 1015.93 1015.68 1015.55 1015.55 1015.66 1015.84 1016.02 1016.16 1016.23 1016.21 1016.12 1015.98 1015.84 1015.70 1015.58 1015.47 1015.34 1015.19 1014.99 1014.76 1014.52 1014.29 1014.12 1014.03 1014.00 1014.04 1014.11 1014.16 1014.17
1013.97 1015.36 1016.65 1017.73 1018.49 1018.89 1018.96 1018.77 1018.43 1018.05 1017.72 1017.50 1017.37 1017.32 1017.27 1017.17 1016.99 1016.72 1016.38 1016.04 1015.76 1015.58 1015.53 1015.60 1015.77 1015.98 1016.16 1016.29 1016.33 1016.30 1016.22 1016.11 1016.01 1015.94 1015.88 1015.82 1015.73 1015.59 1015.40 1015.16 1014.92 1014.72 1014.57 1014.51 1014.55 1014.64 1014.77 1014.87 1014.91
1014.70 1015.92 1017.01 1017.86 1018.42 1018.68 1018.68 1018.51 1018.25 1018.00 1017.81 1017.70 1017.65 1017.62 1017.54 1017.37 1017.11 1016.77 1016.40 1016.06 1015.81 1015.69 1015.70 1015.82 1016.00 1016.19 1016.34 1016.41 1016.40 1016.33 1016.24 1016.16 1016.12 1016.12 1016.14 1016.16 1016.13 1016.04 1015.89 1015.68 1015.45 1015.26 1015.13 1015.10 1015.16 1015.29 1015.45 1015.57 1015.63
1015.35 1016.36 1017.20 1017.81 1018.16 1018.29 1018.25 1018.13 1017.99 1017.90 1017.88 1017.91 1017.96 1017.96 1017.87 1017.67 1017.36 1016.98 1016.59 1016.27 1016.05 1015.98 1016.03 1016.16 1016.33 1016.48 1016.55 1016.53 1016.45 1016.33 1016.22 1016.16 1016.17 1016.25 1016.37 1016.48 1016.55 1016.53 1016.43 1016.25 1016.05 1015.88 1015.76 1015.74 1015.81 1015.94 1016.10 1016.23 1016.29
1015.91 1016.68 1017.26 1017.61 1017.77 1017.78 1017.72 1017.66 1017.65 1017.73 1017.87 1018.04 1018.18 1018.23 1018.15 1017.93 1017.60 1017.21 1016.85 1016.56 1016.40 1016.37 1016.45 1016.60 1016.73 1016.81 1016.79 1016.68 1016.52 1016.33 1016.20 1016.15 1016.21 1016.36 1016.57 1016.78 1016.94 1017.00 1016.96 1016.84 1016.67 1016.51 1016.40 1016.38 1016.44 1016.56 1016.71 1016.83 1016.88
1016.38 1016.92 1017.23 1017.36 1017.33 1017.25 1017.17 1017.17 1017.27 1017.49 1017.77 1018.05 1018.27 1018.36 1018.29 1018.08 1017.76 1017.40 1017.07 1016.85 1016.75 1016.78 1016.90 1017.05 1017.16 1017.17 1017.07 1016.87 1016.62 1016.38 1016.21 1016.17 1016.26 1016.47 1016.74 1017.03 1017.26 1017.40 1017.42 1017.35 1017.22 1017.09 1016.99 1016.97 1017.02 1017.13 1017.27 1017.38 1017.43
1016.80 1017.12 1017.21 1017.13 1016.96 1016.79 1016.70 1016.74 1016.93 1017.24 1017.61 1017.96 1018.21 1018.32 1018.27 1018.07 1017.77 1017.46 1017.20 1017.06 1017.05 1017.15 1017.31 1017.47 1017.56 1017.53 1017.37 1017.11 1016.79 1016.50 1016.30 1016.25 1016.34 1016.57 1016.88 1017.21 1017.48 1017.67 1017.75 1017.73 1017.65 1017.55 1017.48 1017.48 1017.54 1017.65 1017.79 1017.91 1017.97
1017.20 1017.34 1017.25 1017.02 1016.74 1016.51 1016.41 1016.48 1016.71 1017.06 1017.46 1017.82 1018.08 1018.17 1018.11 1017.92 1017.66 1017.41 1017.23 1017.17 1017.24 1017.41 1017.63 1017.81 1017.90 1017.85 1017.66 1017.37 1017.03 1016.71 1016.48 1016.40 1016.48 1016.70 1016.99 1017.32 1017.60 1017.81 1017.92 1017.95 1017.92 1017.88 1017.86 1017.89 1017.98 1018.12 1018.28 1018.42 1018.52
1017.60 1017.62 1017.41 1017.08 1016.74 1016.48 1016.38 1016.45 1016.68 1017.03 1017.40 1017.73 1017.94 1018.00 1017.92 1017.73 1017.50 1017.29 1017.19 1017.20 1017.34 1017.57 1017.82 1018.03 1018.14 1018.10 1017.92 1017.64 1017.30 1016.99 1016.75 1016.65 1016.69 1016.85 1017.10 1017.37 1017.63 1017.82 1017.96 1018.02 1018.05 1018.08 1018.13 1018.23 1018.37 1018.56 1018.76 1018.94 1019.08
1018.03 1017.96 1017.69 1017.33 1016.98 1016.72 1016.62 1016.69 1016.90 1017.20 1017.51 1017.76 1017.89 1017.89 1017.78 1017.58 1017.36 1017.20 1017.14 1017.20 1017.38 1017.63 1017.90 1018.13 1018.25 1018.25 1018.12 1017.88 1017.60 1017.32 1017.10 1016.98 1016.97 1017.06 1017.22 1017.41 1017.60 1017.77 1017.89 1018.00 1018.09 1018.19 1018.33 1018.50 1018.72 1018.96 1019.21 1019.44 1019.63
1018.45 1018.34 1018.06 1017.71 1017.39 1017.17 1017.09 1017.15 1017.33 1017.56 1017.78 1017.94 1017.99 1017.92 1017.76 1017.55 1017.35 1017.20 1017.16 1017.22 1017.40 1017.64 1017.89 1018.12 1018.26 1018.30 1018.23 1018.08 1017.88 1017.67 1017.49 1017.36 1017.31 1017.33 1017.39 1017.48 1017.59 1017.70 1017.82 1017.94 1018.09 1018.27 1018.49 1018.75 1019.03 1019.33 1019.62 1019.88 1020.11
1018.81 1018.69 1018.44 1018.15 1017.89 1017.73 1017.69 1017.75 1017.89 1018.05 1018.18 1018.23 1018.20 1018.08 1017.88 1017.67 1017.46 1017.32 1017.27 1017.32 1017.44 1017.63 1017.84 1018.03 1018.17 1018.25 1018.26 1018.22 1018.12 1018.01 1017.90 1017.80 1017.72 1017.67 1017.64 1017.63 1017.65 1017.70 1017.79 1017.93 1018.12 1018.37 1018.66 1018.98 1019.31 1019.64 1019.95 1020.23 1020.48
1019.06 1018.95 1018.76 1018.55 1018.39 1018.31 1018.31 1018.38 1018.48 1018.56 1018.60 1018.57 1018.46 1018.29 1018.09 1017.88 1017.69 1017.55 1017.48 1017.48 1017.53 1017.64 1017.76 1017.90 1018.03 1018.14 1018.23 1018.29 1018.33 1018.33 1018.31 1018.26 1018.18 1018.08 1017.97 1017.87 1017.80 1017.79 1017.85 1018.00 1018.22 1018.51 1018.84 1019.19 1019.55 1019.88 1020.18 1020.45 1020.70
1019.17 1019.08 1018.97 1018.87 1018.82 1018.82 1018.87 1018.93 1018.98 1018.99 1018.94 1018.83 1018.67 1018.48 1018.28 1018.09 1017.94 1017.82 1017.73 1017.68 1017.66 1017.67 1017.70 1017.76 1017.86 1017.99 1018.15 1018.32 1018.48 1018.62 1018.70 1018.71 1018.65 1018.52 1018.36 1018.19 1018.06 1017.99 1018.02 1018.15 1018.38 1018.68 1019.03 1019.39 1019.73 1020.04 1020.30 1020.54 1020.76
1019.14 1019.10 1019.08 1019.10 1019.16 1019.24 1019.32 1019.37 1019.35 1019.26 1019.11 1018.92 1018.71 1018.51 1018.34 1018.21 1018.11 1018.03 1017.96 1017.88 1017.80 1017.72 1017.66 1017.65 1017.70 1017.84 1018.05 1018.32 1018.60 1018.85 1019.04 1019.13 1019.10 1018.98 1018.79 1018.57 1018.39 1018.27 1018.27 1018.38 1018.60 1018.89 1019.22 1019.55 1019.85 1020.11 1020.33 1020.52 1020.71
1019.02 1019.06 1019.15 1019.29 1019.46 1019.60 1019.69 1019.68 1019.57 1019.36 1019.09 1018.80 1018.54 1018.33 1018.20 1018.14 1018.12 1018.12 1018.09 1018.01 1017.90 1017.76 1017.63 1017.56 1017.58 1017.71 1017.96 1018.29 1018.67 1019.03 1019.31 1019.47 1019.49 1019.39 1019.19 1018.95 1018.74 1018.59 1018.56 1018.64 1018.84 1019.10 1019.40 1019.69 1019.93 1020.13 1020.29 1020.43 1020.58
1018.91 1019.05 1019.27 1019.54 1019.80 1019.98 1020.04 1019.94 1019.69 1019.32 1018.89 1018.48 1018.14 1017.91 1017.82 1017.83 1017.91 1018.00 1018.05 1018.02 1017.92 1017.77 1017.60 1017.48 1017.47 1017.60 1017.86 1018.24 1018.68 1019.12 1019.48 1019.71 1019.78 1019.71 1019.52 1019.29 1019.06 1018.90 1018.84 1018.91 1019.07 1019.31 1019.56 1019.80 1019.99 1020.13 1020.23 1020.32 1020.44
1018.89 1019.17 1019.54 1019.93 1020.26 1020.45 1020.44 1020.22 1019.78 1019.21 1018.59 1018.01 1017.56 1017.29 1017.21 1017.29 1017.47 1017.67 1017.82 1017.88 1017.83 1017.70 1017.54 1017.40 1017.38 1017.49 1017.76 1018.15 1018.63 1019.11 1019.52 1019.80 1019.92 1019.89 1019.74 1019.53 1019.32 1019.16 1019.10 1019.15 1019.30 1019.50 1019.71 1019.91 1020.05 1020.14 1020.20 1020.26 1020.36
1019.05 1019.49 1020.01 1020.52 1020.90 1021.07 1020.96 1020.57 1019.93 1019.12 1018.27 1017.50 1016.91 1016.56 1016.47 1016.59 1016.85 1017.16 1017.42 1017.58 1017.62 1017.54 1017.41 1017.28 1017.25 1017.35 1017.60 1018.00 1018.48 1018.97 1019.41 1019.73 1019.90 1019.92 1019.83 1019.66 1019.49 1019.36 1019.32 1019.37 1019.51 1019.69 1019.87 1020.03 1020.14 1020.20 1020.23 1020.27 1020.35
1019.39 1020.00 1020.67 1021.27 1021.68 1021.81 1021.58 1021.01 1020.14 1019.09 1018.01 1017.03 1016.29 1015.84 1015.70 1015.83 1016.14 1016.53 1016.90 1017.16 1017.28 1017.28 1017.19 1017.09 1017.05 1017.14 1017.38 1017.75 1018.21 1018.70 1019.16 1019.51 1019.73 1019.81 1019.79 1019.69 1019.58 1019.51 1019.50 1019.58 1019.72 1019.89 1020.06 1020.20 1020.29 1020.33 1020.34 1020.36 1020.42
1019.85 1020.62 1021.41 1022.08 1022.51 1022.57 1022.22 1021.48 1020.40 1019.13 1017.83 1016.66 1015.76 1015.20 1014.99 1015.10 1015.44 1015.88 1016.31 1016.65 1016.84 1016.90 1016.86 1016.79 1016.76 1016.84 1017.04 1017.38 1017.82 1018.30 1018.76 1019.15 1019.42 1019.58 1019.64 1019.64 1019.62 1019.62 1019.67 1019.78 1019.94 1020.11 1020.28 1020.40 1020.48 1020.51 1020.51 1020.51 1020.55
1020.34 1021.23 1022.10 1022.81 1023.22 1023.21 1022.76 1021.86 1020.63 1019.19 1017.72 1016.41 1015.38 1014.72 1014.44 1014.51 1014.82 1015.27 1015.73 1016.10 1016.34 1016.44 1016.44 1016.39 1016.36 1016.42 1016.60 1016.91 1017.32 1017.79 1018.25 1018.67 1019.01 1019.25 1019.41 1019.52 1019.60 1019.70 1019.82 1019.98 1020.16 1020.35 1020.51 1020.63 1020.70 1020.72 1020.71 1020.69 1020.70
1020.73 1021.68 1022.59 1023.29 1023.65 1023.58 1023.04 1022.06 1020.73 1019.20 1017.66 1016.27 1015.17 1014.44 1014.10 1014.10 1014.37 1014.78 1015.21 1015.58 1015.82 1015.94 1015.94 1015.90 1015.87 1015.92 1016.07 1016.35 1016.73 1017.19 1017.66 1018.12 1018.52 1018.86 1019.13 1019.35 1019.55 1019.74 1019.94 1020.15 1020.36 1020.56 1020.72 1020.84 1020.90 1020.91 1020.89 1020.86 1020.85
1020.92 1021.87 1022.74 1023.39 1023.70 1023.57 1022.99 1021.98 1020.64 1019.12 1017.59 1016.22 1015.12 1014.36 1013.98 1013.93 1014.13 1014.46 1014.83 1015.14 1015.34 1015.43 1015.42 1015.37 1015.33 1015.36 1015.50 1015.75 1016.11 1016.56 1017.04 1017.54 1018.00 1018.42 1018.80 1019.13 1019.44 1019.72 1019.99 1020.25 1020.50 1020.70 1020.87 1020.98 1021.04 1021.05 1021.03 1020.99 1020.96
1020.86 1021.74 1022.53 1023.09 1023.32 1023.15 1022.56 1021.60 1020.34 1018.93 1017.52 1016.24 1015.22 1014.51 1014.12 1014.02 1014.13 1014.36 1014.62 1014.83 1014.95 1014.98 1014.94 1014.86 1014.81 1014.82 1014.94 1015.18 1015.52 1015.96 1016.45 1016.96 1017.48 1017.97 1018.43 1018.85 1019.24 1019.60 1019.94 1020.24 1020.50 1020.72 1020.89 1021.00 1021.06 1021.08 1021.07 1021.05 1021.02
1020.61 1021.36 1022.02 1022.47 1022.61 1022.42 1021.86 1021.00 1019.89 1018.67 1017.46 1016.37 1015.49 1014.86 1014.49 1014.35 1014.37 1014.48 1014.61 1014.70 1014.72 1014.66 1014.56 1014.45 1014.38 1014.38 1014.48 1014.70 1015.03 1015.45 1015.93 1016.45 1016.98 1017.51 1018.02 1018.50 1018.95 1019.37 1019.75 1020.08 1020.36 1020.59 1020.76 1020.88 1020.95 1021.00 1021.01 1021.02 1021.03
Thickness
5801 5800 5796 5783 5759 5739 5734 5744 5753 5755 5758 5766 5770 5765 5754 5748 5742 5737 5758 5767 5767 5767 5767 5768 5768 5768 5769 5769 5769 5769 5769 5768 5768 5768 5767 5767 5766 5766 5766 5766 5766 5765 5765 5765 5765 5766 5766 5767 5767
5801 5798 5786 5768 5742 5724 5730 5746 5749 5757 5764 5770 5769 5764 5755 5751 5757 5757 5760 5765 5766 5766 5766 5766 5767 5767 5767 5767 5767 5766 5766 5766 5765 5765 5764 5764 5763 5763 5763 5763 5762 5762 5762 5762 5762 5762 5763 5763 5763
5801 5796 5773 5754 5738 5728 5733 5747 5753 5763 5770 5769 5762 5761 5754 5751 5758 5759 5763 5766 5765 5764 5764 5764 5765 5765 5764 5764 5764 5764 5763 5763 5762 5762 5761 5761 5760 5760 5760 5759 5759 5759 5759 5758 5759 5759 5759 5759 5760
5794 5779 5765 5745 5736 5744 5747 5752 5759 5761 5764 5766 5760 5751 5754 5762 5763 5764 5765 5765 5763 5762 5762 5763 5763 5762 5762 5762 5762 5761 5761 5760 5759 5758 5758 5757 5757 5757 5756 5756 5756 5755 5755 5755 5756 5756 5756 5756 5756
5786 5766 5746 5734 5739 5749 5756 5761 5762 5757 5756 5758 5756 5744 5745 5760 5766 5765 5764 5763 5761 5760 5760 5760 5760 5760 5760 5760 5759 5759 5758 5757 5756 5755 5754 5754 5753 5753 5753 5752 5752 5752 5752 5752 5752 5752 5752 5752 5752
5769 5755 5732 5725 5736 5749 5757 5762 5760 5755 5753 5755 5752 5742 5743 5757 5760 5761 5762 5761 5760 5759 5758 5758 5758 5757 5757 5757 5756 5756 5755 5754 5753 5752 5751 5750 5750 5749 5749 5749 5749 5749 5749 5748 5748 5748 5748 5749 5748
5762 5745 5731 5731 5733 5742 5754 5763 5757 5751 5750 5753 5754 5740 5742 5751 5758 5760 5760 5759 5758 5757 5756 5755 5755 5755 5754 5754 5753 5753 5752 5750 5749 5749 5748 5747 5746 5746 5746 5745 5745 5745 5745 5745 5745 5745 5744 5745 5744
5770 5747 5733 5731 5732 5738 5756 5762 5760 5755 5751 5761 5758 5740 5737 5750 5758 5758 5757 5755 5754 5753 5753 5752 5751 5751 5751 5751 5750 5750 5748 5747 5746 5745 5744 5743 5743 5742 5742 5742 5741 5741 5741 5741 5741 5740 5740 5740 5740
5772 5739 5726 5733 5736 5741 5755 5754 5758 5762 5756 5755 5756 5751 5752 5756 5756 5753 5750 5748 5748 5748 5749 5749 5748 5748 5748 5747 5747 5746 5745 5744 5743 5742 5741 5740 5739 5739 5738 5738 5737 5737 5737 5737 5736 5736 5736 5735 5735
5757 5731 5737 5748 5749 5747 5752 5752 5752 5749 5744 5743 5746 5751 5754 5753 5750 5746 5743 5742 5743 5743 5745 5746 5746 5745 5745 5744 5743 5743 5742 5740 5739 5738 5737 5736 5735 5735 5734 5734 5733 5733 5733 5732 5731 5731 5730 5730 5729
5755 5741 5748 5754 5757 5755 5750 5749 5752 5742 5734 5739 5740 5743 5747 5746 5744 5742 5741 5742 5742 5743 5744 5744 5744 5743 5742 5741 5740 5739 5738 5737 5736 5735 5734 5733 5732 5731 5730 5729 5729 5728 5728 5727 5726 5725 5724 5724 5723
5753 5752 5755 5755 5760 5756 5750 5748 5745 5742 5742 5750 5749 5748 5745 5741 5740 5739 5738 5739 5741 5741 5742 5742 5742 5740 5739 5738 5736 5735 5735 5733 5732 5731 5730 5729 5727 5726 5725 5724 5724 5723 5723 5722 5721 5719 5719 5718 5718
5748 5748 5755 5757 5757 5754 5751 5745 5743 5742 5749 5750 5749 5745 5741 5740 5739 5739 5740 5739 5739 5738 5739 5739 5739 5737 5736 5734 5733 5732 5730 5729 5728 5727 5726 5725 5723 5721 5720 5719 5719 5718 5718 5717 5715 5714 5713 5713 5712
5751 5750 5750 5752 5752 5752 5744 5741 5741 5741 5748 5746 5743 5740 5739 5738 5738 5737 5736 5735 5735 5735 5736 5737 5736 5734 5732 5730 5729 5728 5726 5725 5725 5723 5722 5722 5720 5718 5716 5715 5714 5713 5713 5712 5711 5709 5708 5707 5706
5754 5743 5741 5745 5747 5746 5742 5729 5735 5743 5745 5740 5738 5737 5737 5737 5738 5736 5736 5735 5734 5734 5734 5733 5733 5731 5729 5727 5726 5724 5723 5722 5721 5720 5719 5718 5716 5715 5713 5711 5709 5708 5708 5707 5705 5704 5703 5702 5701
5743 5729 5720 5736 5743 5744 5733 5715 5735 5744 5740 5734 5733 5733 5733 5734 5736 5737 5737 5735 5734 5732 5731 5730 5730 5727 5726 5724 5722 5720 5719 5718 5716 5715 5714 5713 5712 5710 5709 5706 5704 5704 5703 5702 5700 5699 5697 5696 5695
5722 5712 5714 5727 5742 5740 5728 5718 5735 5741 5738 5731 5730 5730 5730 5731 5733 5735 5736 5735 5733 5731 5729 5727 5725 5723 5722 5720 5718 5716 5715 5713 5712 5711 5710 5709 5707 5706 5704 5702 5700 5699 5698 5697 5696 5693 5692 5690 5689
5711 5713 5716 5720 5735 5733 5723 5722 5732 5738 5736 5730 5729 5728 5728 5728 5731 5734 5734 5734 5732 5729 5726 5724 5721 5719 5718 5716 5713 5711 5709 5708 5707 5706 5705 5704 5703 5701 5700 5698 5696 5695 5693 5691 5690 5688 5687 5686 5685
5726 5720 5716 5723 5737 5729 5720 5720 5727 5733 5731 5727 5726 5726 5726 5728 5732 5733 5733 5732 5728 5725 5722 5720 5717 5715 5713 5710 5707 5704 5702 5702 5702 5701 5700 5700 5698 5697 5696 5693 5691 5690 5688 5686 5685 5684 5682 5680 5680
5725 5716 5715 5723 5735 5728 5717 5718 5726 5730 5730 5731 5729 5727 5727 5727 5728 5728 5728 5727 5725 5722 5719 5716 5714 5712 5710 5708 5705 5702 5700 5697 5697 5696 5695 5694 5693 5692 5690 5689 5687 5685 5683 5681 5680 5679 5677 5676 5675
5721 5716 5716 5717 5725 5725 5716 5708 5716 5726 5731 5731 5732 5731 5730 5729 5726 5725 5725 5724 5722 5719 5717 5715 5712 5709 5707 5705 5702 5698 5694 5692 5690 5689 5688 5689 5688 5687 5685 5684 5682 5681 5679 5676 5675 5674 5673 5670 5670
5713 5727 5726 5721 5708 5697 5707 5685 5705 5716 5720 5725 5727 5727 5727 5729 5728 5726 5724 5722 5720 5719 5717 5714 5710 5708 5705 5702 5698 5693 5689 5684 5684 5683 5683 5683 5682 5682 5681 5679 5678 5676 5674 5673 5672 5671 5669 5667 5664
5722 5732 5725 5719 5707 5695 5697 5685 5695 5709 5710 5718 5724 5726 5727 5728 5727 5725 5725 5723 5721 5719 5715 5711 5708 5704 5702 5699 5695 5691 5686 5683 5681 5679 5678 5677 5677 5676 5675 5674 5673 5671 5670 5669 5668 5666 5665 5663 5660
5731 5722 5713 5702 5691 5679 5692 5684 5688 5701 5712 5719 5724 5726 5727 5727 5726 5725 5724 5721 5718 5716 5712 5708 5704 5700 5698 5695 5692 5688 5684 5680 5676 5674 5672 5671 5671 5671 5670 5669 5667 5666 5665 5664 5663 5662 5660 5658 5656
5719 5693 5674 5670 5664 5671 5693 5687 5692 5714 5724 5726 5724 5724 5725 5725 5722 5720 5718 5715 5713 5710 5708 5705 5700 5696 5694 5691 5688 5685 5682 5678 5674 5671 5669 5667 5665 5665 5665 5664 5663 5662 5661 5660 5658 5656 5655 5654 5651
5709 5694 5670 5660 5658 5669 5687 5683 5699 5722 5728 5729 5727 5725 5723 5721 5719 5718 5716 5714 5711 5708 5705 5701 5697 5693 5690 5687 5684 5682 5679 5675 5672 5669 5667 5664 5662 5661 5661 5659 5658 5657 5656 5655 5653 5651 5650 5649 5647
5705 5692 5692 5674 5672 5666 5672 5686 5704 5718 5719 5720 5719 5718 5717 5717 5717 5715 5713 5711 5708 5705 5702 5699 5694 5690 5687 5684 5681 5678 5675 5672 5669 5666 5664 5661 5660 5658 5656 5655 5653 5652 5651 5650 5648 5646 5644 5643 5642
5714 5702 5681 5671 5660 5654 5666 5675 5682 5700 5706 5711 5712 5712 5713 5713 5713 5711 5709 5707 5705 5702 5699 5695 5692 5687 5684 5681 5678 5675 5671 5668 5665 5662 5659 5657 5656 5654 5652 5650 5648 5647 5645 5644 5642 5640 5639 5637 5636
5702 5697 5685 5669 5663 5653 5651 5668 5701 5703 5708 5707 5708 5709 5710 5709 5708 5707 5705 5704 5701 5697 5694 5690 5686 5682 5679 5676 5673 5669 5666 5663 5660 5657 5654 5652 5650 5648 5647 5645 5643 5641 5639 5638 5636 5634 5633 5631 5630
5706 5698 5684 5667 5662 5659 5653 5667 5708 5708 5709 5708 5706 5707 5707 5706 5705 5704 5701 5698 5694 5691 5688 5684 5681 5678 5675 5671 5667 5664 5661 5658 5654 5651 5649 5647 5645 5643 5641 5639 5637 5635 5634 5632 5630 5629 5627 5625 5624